This is the latest recevied weather packets stored in our database for station/object K6CED. If no packets are shown the sender has not sent any weather packets the latest 10 day(s).
| Time | Temp. | Humidity | Pressure | Rain* | Wind** | Luminosity | Snow |
|---|---|---|---|---|---|---|---|
| 1788139777 | 28.33° C | 53% | 1013.6 hPa | 0 mm | - | 42 W/m² | - |
| 1788139473 | 29.44° C | 51% | 1013.4 hPa | 0 mm | - | 50 W/m² | - |
| 1788139166 | 28.89° C | 50% | 1013.7 hPa | 0 mm | - | 58 W/m² | - |
| 1788138861 | 28.89° C | 50% | 1013.6 hPa | 0 mm | - | 64 W/m² | - |
| 1788138557 | 29.44° C | 48% | 1013.5 hPa | 0 mm | - | 75 W/m² | - |
| 1788138252 | 30° C | 48% | 1013.5 hPa | 0 mm | - | 86 W/m² | - |
| 1788137948 | 30° C | 48% | 1013.7 hPa | 0 mm | - | 98 W/m² | - |
| 1788137643 | 30° C | 47% | 1013.5 hPa | 0 mm | - | 107 W/m² | - |
| 1788137337 | 30.56° C | 45% | 1013.7 hPa | 0 mm | - | 113 W/m² | - |
| 1788137034 | 31.11° C | 44% | 1013.9 hPa | 0 mm | - | 134 W/m² | - |
| 1788136729 | 30.56° C | 44% | 1013.7 hPa | 0 mm | - | 155 W/m² | - |
| 1788136425 | 31.11° C | 43% | 1013.3 hPa | 0 mm | - | 173 W/m² | - |
| 1788136124 | 31.11° C | 43% | 1013.5 hPa | 0 mm | - | 192 W/m² | - |
| 1788135823 | 30.56° C | 43% | 1013.7 hPa | 0 mm | - | 207 W/m² | - |
| 1788135519 | 31.11° C | 43% | 1013.5 hPa | 0 mm | - | 219 W/m² | - |
| 1788135214 | 31.67° C | 42% | 1013.6 hPa | 0 mm | - | 237 W/m² | - |
| 1788134912 | 31.67° C | 42% | 1013.4 hPa | 0 mm | - | 259 W/m² | - |
| 1788134612 | 31.11° C | 42% | 1013.4 hPa | 0 mm | - | 277 W/m² | - |
| 1788134310 | 32.22° C | 41% | 1013.6 hPa | 0 mm | - | 294 W/m² | - |
| 1788134005 | 32.22° C | 41% | 1013.4 hPa | 0 mm | - | 308 W/m² | - |
| 1788133701 | 31.67° C | 41% | 1013.6 hPa | 0 mm | - | 319 W/m² | - |
| 1788133396 | 32.22° C | 40% | 1013.4 hPa | 0 mm | - | 337 W/m² | - |
| 1788133092 | 31.67° C | 41% | 1013.5 hPa | 0 mm | - | 351 W/m² | - |
| 1788132787 | 31.67° C | 42% | 1013.6 hPa | 0 mm | - | 367 W/m² | - |
| 1788132482 | 32.22° C | 39% | 1013.5 hPa | 0 mm | - | 382 W/m² | - |
* Rain latest hour (hover to see other rain measurements)
** Current wind speed in m/s (hover to see current wind gust speed)